AirNav   Everest Fuels
 
 1582 users online  

7GA4 Danville Airpark
Danville, Georgia, USA

GOING TO DANVILLE?


FAA INFORMATION EFFECTIVE 16 JUNE 2022

Location

FAA Identifier: 7GA4
Lat/Long: 32-34-51.5590N 083-16-03.5760W
32-34.859317N 083-16.059600W
32.5809886,-83.2676600
(estimated)
Elevation: 459 ft. / 139.9 m (surveyed)
Variation: 03W (1985)
From city: 2 miles SW of DANVILLE, GA
Time zone: UTC -4 (UTC -5 during Standard Time)
Zip code: 31017

Airport Operations

Airport use: Private use. Permission required prior to landing
Activation date: 03/1980
Control tower: no
ARTCC: ATLANTA CENTER
FSS: MACON FLIGHT SERVICE STATION
Attendance: DAYLIGHT HOURS
Wind indicator: yes
Segmented circle: no

Airport Communications

WX AWOS-3PT at 48A (11 nm S): 120.975 (478-271-5897)
WX AWOS-3 at DBN (14 nm E): 118.425 (478-277-9051)

Airport Services

Runway Information

Runway 9/27

Dimensions: 2400 x 60 ft. / 732 x 18 m
Surface: turf
RUNWAY 9  RUNWAY 27
Traffic pattern: leftleft
Obstructions: trees, 300 ft. from runwaypline, 100 ft. from runway

Airport Ownership and Management from official FAA records

Ownership: Privately-owned
Owner: DIANE & BILL NEAL TRUST
323 AIRPORT RD
DANVILLE, GA 31017
Phone 912-962-3609
Manager: B. NEAL
323 AIRPORT RD
DANVILLE, GA 31017
Phone 912-962-3609
ADDITIONAL CONTACT E. NEAL 954-684-0236

Airport Operational Statistics

Aircraft based on the field: 2
Single engine airplanes: 1
Ultralights: 1
    

Additional Remarks

FOR CD CTC ATLANTA APCH AT 678-364-6132, WHEN APCH CLSD CTC ATLANTA ARTCC AT 770-210-7692.

Instrument Procedures

There are no published instrument procedures at 7GA4.

Some nearby airports with instrument procedures:

48A - Cochran Airport (11 nm S)
KDBN - W H 'Bud' Barron Airport (14 nm E)
KWRB - Robins Air Force Base (17 nm W)
KMCN - Middle Georgia Regional Airport (20 nm W)
KMAC - Macon Downtown Airport (21 nm NW)
 
Loc | Ops | Rwys | IFR | FBO | Links
Com | Nav | Svcs | Stats | Notes
Area around 7GA4 (Danville Airpark)
 
Road maps at: MapQuest Bing Google
 
Aerial photo
No photo
 
Sectional chart

 
Airport distance calculator
Flying to Danville Airpark? Find the distance to fly.

From to 7GA4

Sunrise and sunset
Times for 29-Jun-2022
 Local
(UTC-4)
 Zulu
(UTC)
Morning civil twilight06:0110:01
Sunrise06:2910:29
Sunset20:4400:44
Evening civil twilight21:1201:12

Current date and time
Zulu (UTC)  29-Jun-2022 16:08:58
Local (UTC-4)  29-Jun-2022 12:08:58
 
METAR
K48A 
11nm S 
291555Z AUTO 04004KT 10SM CLR 28/23 A3022 RMK AO2 LTG DSNT NE AND E T02780228
KDBN 
14nm E 
291550Z AUTO 03005KT 10SM SCT022 SCT110 29/22 A3024 RMK AO2
KWRB 
16nm W 
291556Z 04003KT 10SM BKN070 BKN140 25/23 A3022 RMK AO2A SLP233 T02530228
KMCN 
20nm W 
291553Z 05006KT 10SM CLR 26/22 A3023 RMK AO2 SLP231 T02560217
TAF
KWRB 
16nm W 
291100Z 2911/3014 VRB06KT 9999 BKN030 OVC035 QNH3016INS BECMG 2920/2921 09010G20KT 9000 -SHRA VCTS BKN025CB OVC040 QNH3015INS BECMG 3000/3001 VRB06KT 9999 NSW BKN025 OVC040 QNH3015INS TX33/2920Z TN21/2911Z
NOTAMs
Click for the latest NOTAMs
NOTAMs are issued by the DoD/FAA and will open in a separate window not controlled by AirNav.

 

 
 

Would you like to see your business listed on this page?

 If your business provides an interesting product or service to pilots, flight crews, aircraft, or users of the Danville Airpark, you should consider listing it here.  To start the listing process, click on the button below
 
Add a business
 

Other Pages about Danville Airpark

Update a link
 
Copyright © AirNav, LLC. All rights reserved. Privacy Policy  Contact